Regional Weather Roundup
Issued by NWS

Home | Current Version | Previous Version | Graphics & Text | Print | Product List | Glossary On
Versions: 1 2 3 4 5 6 7 8 9 10 11 12 13 14 15 16 17 18 19 20 21 22 23 24 25 26 27 28 29 30 31 32 33 34 35 36 37 38 39 40 41 42 43 44 45 46 47 48 49 50
000
ASUS43 KDMX 251301
RWRIA

WEATHER ROUNDUP FOR IOWA
NATIONAL WEATHER SERVICE DES MOINES IA
800 AM CDT SUN JUN 25 2017

NOTE: "FAIR" INDICATES FEW OR NO CLOUDS BELOW 12,000 FEET WITH NO
SIGNIFICANT WEATHER AND/OR OBSTRUCTIONS TO VISIBILITY.

* - THESE STATIONS ARE NOT NWS STATIONS...THUS NOT UNDER NWS
QUALITY CONTROL.  THEY ALSO DO NOT REPORT WEATHER SUCH
AS PRECIPITATION OR FOG.

IAZ001>003-012>014-020>022-031>034-043>046-251400-
   NORTHWEST IOWA

CITY           SKY/WX    TMP DP  RH WIND       PRES   REMARKS
CARROLL *      SUNNY     57  46  67 W14G21    30.26S
CHEROKEE *     MOSUNNY   55  47  74 NW10G16   30.29R
DENISON *      SUNNY     55  46  71 NW13      30.31R
LE MARS *      SUNNY     55  46  71 NW7       30.31S
ORANGE CITY *  SUNNY     54  48  82 NW10G17   30.29S
SHELDON *      SUNNY     55  46  71 NW12G18   30.27R
SIOUX CITY     SUNNY     56  47  71 NW12      30.31S
SPENCER        SUNNY     55  43  63 NW16      30.26R
STORM LAKE *   SUNNY     54  43  66 NW18G26   30.28R
$$

IAZ055>058-069>071-079>083-090>094-251400-
   SOUTHWEST IOWA

CITY           SKY/WX    TMP DP  RH WIND       PRES   REMARKS
ATLANTIC *     SUNNY     57  46  67 NW12      30.28S
AUDUBON *      SUNNY     57  46  67 NW9       30.29R
CLARINDA *     MOSUNNY   59  50  72 N5        30.31R
COUNCIL BLFS * SUNNY     59  45  58 NW9       30.30R
CRESTON *      SUNNY     57  46  67 NW13      30.29R
HARLAN  *      SUNNY     57  46  67 NW14G21   30.33R
LAMONI         MOSUNNY   60  46  59 NW12      30.27R
RED OAK *      CLOUDY    59  48  67 NW6       30.30R
SHENANDOAH *   SUNNY     55  48  76 SW3       30.31R
$$

IAZ047>049-059>061-072>074-084-251400-
   CENTRAL IOWA

CITY           SKY/WX    TMP DP  RH WIND       PRES   REMARKS
AMES           MOSUNNY   59  48  67 NW15      30.24R
ANKENY *       SUNNY     57  48  72 NW10      30.25R
BOONE *        CLOUDY    55  46  71 NW14      30.24R
CHARITON *     SUNNY     57  46  67 NW9G16    30.24S
DES MOINES     SUNNY     59  46  62 NW12      30.25R
GRINNELL*      MOSUNNY   56  47  69 W9        30.23S
KNOXVILLE *    SUNNY     57  48  72 NW7       30.23R
MARSHALLTOWN   MOSUNNY   56  49  77 NW14      30.21R
NEWTON *       MOSUNNY   57  46  67 NW12      30.23R
PELLA *        MOSUNNY   58  47  67 NW9       30.24R
PERRY *          N/A     57  48  72 NW10      30.26R
$$

IAZ004>006-015-016-023>025-035-036-251400-
   NORTH CENTRAL IOWA

CITY           SKY/WX    TMP DP  RH WIND       PRES   REMARKS
ALGONA *       PTSUNNY   55  45  67 NW20G28   30.23S
CLARION *        N/A     55  50  82 NW15G22   30.22R
ESTHERVILLE    SUNNY     53  45  74 NW17G23   30.23R
FORT DODGE *   SUNNY     55  45  67 NW10G20   30.25R
MASON CITY     CLOUDY    53  46  77 W14       30.21R
FOREST CITY *  CLOUDY    54  43  66 W14G20    30.20R
WEBSTER CITY * SUNNY     57  46  67 W17       30.22R
IOWA FALLS *     N/A     57  49  75 W14G20    30.22R
$$

IAZ007>011-017>019-026>030-037>042-050>054-066-251400-
   NORTHEAST IOWA

CITY           SKY/WX    TMP DP  RH WIND       PRES   REMARKS
CEDAR RAPIDS   CLOUDY    57  50  77 NW14      30.18R
CHARLES CITY * CLOUDY    54  50  87 W15       30.18R
CLINTON *      SUNNY     59  51  75 MISG      30.16R
DECORAH *      SUNNY     54  48  82 VRB7      30.13R
DUBUQUE        SUNNY     55  49  80 W10       30.15R
MONTICELLO *   SUNNY     57  50  77 W12       30.16R
OELWEIN *      SUNNY     55  50  82 NW17      30.18R
WATERLOO       MOSUNNY   57  47  69 W10       30.18R
$$

IAZ064-065-067-068-078-251400-
   EAST CENTRAL IOWA

CITY           SKY/WX    TMP DP  RH WIND       PRES   REMARKS
DAVENPORT      SUNNY     58  49  72 W10       30.17R
IOWA CITY      MOSUNNY   58  47  66 NW9       30.20R
MT. PLEASANT * MOSUNNY   61  44  53 NW9       30.20S
MUSCATINE *    MOSUNNY   61  46  59 NW13      30.19R
QUAD CITIES    SUNNY     62  49  62 W10       30.17R
$$

IAZ062-063-075>077-085>089-095>099-251400-
   SOUTHEAST IOWA

CITY           SKY/WX    TMP DP  RH WIND       PRES   REMARKS
BURLINGTON     SUNNY     62  47  57 NW8       30.19R
FAIRFIELD *    MOSUNNY   59  46  63 NW13      30.21R
FORT MADISON * SUNNY     63  48  59 W8        30.21R
KEOKUK *       MOSUNNY   61  50  67 W8        30.20R
OSKALOOSA *      N/A     58  48  68 NW9       30.23R
OTTUMWA        SUNNY     59  48  67 NW9       30.22R
WASHINGTON *   PTSUNNY   59  48  67 NW10      30.22R
$$

ABBREVIATIONS USED IN REMARKS
   TC - TEMPERATURES IN CELSIUS
  WCI - WIND CHILL INDEX
   HX - HEAT INDEX
  VSB - VISIBILITY
$$




USA.gov is the U.S. government's official web portal to all federal, state and local government web resources and services.